{"data":{"norad_id":68442,"intl_designator":"2026-067AC","name":"NUSAT-54 (BRANCA MARQU*)","alt_names":[],"object_type":"PAYLOAD","status":"ACTIVE","operator":null,"country":"ARGN","launch_date":"2026-03-30","launch_site_code":"AFWTR","launch_vehicle":null,"mission":null,"orbit_class":"UNKNOWN","rcs_meters":null,"size_class":null,"mass_kg":null,"dimensions":null,"purposes":[],"wikipedia_slug":null,"has_3d_model":false,"image_url":null,"decayed_at":null,"tle_current":{"epoch":"2026-05-25T03:56:55.964832Z","epoch_age_seconds":64323,"freshness":"FRESH","line1":"1 68442U 26067AC  26145.16453663  .00004986  00000+0  25223-3 0  9990","line2":"2 68442  97.4526 103.9022 0005713 131.7100 228.4623 15.17471974  8444","mean_motion":15.17471974,"eccentricity":0.0005713,"inclination_deg":97.4526,"raan_deg":103.9022,"arg_perigee_deg":131.71,"mean_anomaly_deg":228.4623,"bstar":0.00025223,"rev_number":844,"period_min":94.894668545622,"perigee_km":509.54686490274,"apogee_km":517.4212311122,"semimajor_km":6891.6210480075,"source":"CELESTRAK","updated_at":"2026-05-25T13:38:07.838932Z"}}}